| time (UTC) | temp F | wind direction | speed knots | gust knots | rain 1hr in | rain 24hr in | rain mn in | humidity % | barometer mb |
| 20260509024053 | 53 | 197 | 1.7 | 2.6 | 0.00 | 0.02 | 0.02 | 88 | 1010.1 |
| 20260509023553 | 53 | 197 | 1.7 | 2.6 | 0.00 | 0.02 | 0.02 | 87 | 1010.0 |
| 20260509023054 | 53 | 197 | 0.9 | 2.6 | 0.00 | 0.02 | 0.02 | 87 | 1010.0 |
| 20260509022552 | 54 | 198 | 0.9 | 2.6 | 0.00 | 0.02 | 0.02 | 87 | 1010.1 |
| 20260509022053 | 54 | 202 | 0.0 | 1.7 | 0.00 | 0.02 | 0.02 | 87 | 1010.1 |
| 20260509021553 | 54 | 202 | 0.9 | 1.7 | 0.00 | 0.02 | 0.02 | 86 | 1010.1 |
| 20260509021053 | 54 | 202 | 0.9 | 2.6 | 0.00 | 0.02 | 0.02 | 86 | 1010.1 |
| 20260509020554 | 54 | 202 | 0.9 | 2.6 | 0.00 | 0.03 | 0.02 | 86 | 1010.1 |
| 20260509020053 | 54 | 202 | 1.7 | 2.6 | 0.00 | 0.05 | 0.02 | 86 | 1010.0 |
| 20260509015553 | 55 | 202 | 1.7 | 2.6 | 0.00 | 0.07 | 0.02 | 86 | 1010.1 |
| 20260509015054 | 55 | 202 | 1.7 | 2.6 | 0.00 | 0.10 | 0.02 | 86 | 1010.0 |
| 20260509014552 | 55 | 203 | 2.6 | 3.5 | 0.00 | 0.12 | 0.02 | 86 | 1010.0 |
| 20260509014053 | 55 | 195 | 2.6 | 4.3 | 0.00 | 0.13 | 0.02 | 86 | 1009.9 |
| 20260509013815 | 55 | 203 | 3.5 | 4.3 | 0.00 | 0.15 | 0.02 | 86 | 1009.9 |
| 20260509013311 | 55 | 202 | 3.5 | 4.3 | 0.00 | 0.17 | 0.02 | 85 | 1009.8 |
| 20260509012553 | 56 | 203 | 3.5 | 6.1 | 0.00 | 0.17 | 0.02 | 85 | 1009.8 |
| 20260509012052 | 56 | 203 | 3.5 | 6.1 | 0.00 | 0.17 | 0.02 | 85 | 1009.8 |
| 20260509011553 | 56 | 208 | 3.5 | 5.2 | 0.00 | 0.17 | 0.02 | 85 | 1009.8 |
| 20260509011053 | 56 | 200 | 4.3 | 6.1 | 0.00 | 0.17 | 0.02 | 85 | 1009.8 |
| 20260509010552 | 55 | 198 | 4.3 | 6.1 | 0.00 | 0.17 | 0.02 | 85 | 1009.7 |
| 20260509010053 | 55 | 202 | 4.3 | 6.1 | 0.00 | 0.17 | 0.02 | 84 | 1009.7 |
| 20260509005553 | 56 | 207 | 4.3 | 6.1 | 0.00 | 0.17 | 0.02 | 84 | 1009.7 |
| 20260509005054 | 56 | 199 | 4.3 | 6.1 | 0.00 | 0.17 | 0.02 | 83 | 1009.6 |
| 20260509004813 | 56 | 217 | 5.2 | 6.1 | 0.00 | 0.17 | 0.02 | 83 | 1009.6 |
| 20260509004054 | 56 | 217 | 5.2 | 8.7 | 0.00 | 0.17 | 0.02 | 83 | 1009.6 |
| 20260509003554 | 57 | 226 | 5.2 | 8.7 | 0.00 | 0.17 | 0.02 | 82 | 1009.4 |
| 20260509003048 | 57 | 211 | 5.2 | 8.7 | 0.00 | 0.17 | 0.02 | 82 | 1009.4 |
| 20260509002542 | 57 | 225 | 5.2 | 8.7 | 0.00 | 0.17 | 0.02 | 82 | 1009.6 |
| 20260509002036 | 57 | 243 | 5.2 | 9.6 | 0.00 | 0.17 | 0.02 | 82 | 1009.4 |
| 20260509001534 | 57 | 218 | 6.1 | 9.6 | 0.00 | 0.17 | 0.02 | 82 | 1009.6 |
| 20260509001023 | 57 | 229 | 5.2 | 9.6 | 0.00 | 0.17 | 0.02 | 82 | 1009.6 |
| 20260509000517 | 58 | 213 | 6.1 | 12.2 | 0.00 | 0.17 | 0.02 | 82 | 1009.7 |
| 20260509000011 | 58 | 215 | 6.1 | 12.2 | 0.00 | 0.17 | 0.02 | 82 | 1009.6 |
| 20260508235507 | 58 | 217 | 7.0 | 10.4 | 0.00 | 0.17 | 0.02 | 82 | 1009.6 |
| 20260508235227 | 58 | 189 | 7.0 | 11.3 | 0.00 | 0.17 | 0.02 | 82 | 1009.6 |
| 20260508234734 | 58 | 218 | 7.0 | 11.3 | 0.00 | 0.17 | 0.02 | 83 | 1009.6 |
| 20260508234007 | 58 | 235 | 7.8 | 11.3 | 0.00 | 0.17 | 0.02 | 83 | 1009.6 |
| 20260508233507 | 58 | 225 | 7.8 | 11.3 | 0.00 | 0.17 | 0.02 | 82 | 1009.4 |
| 20260508233006 | 58 | 216 | 7.8 | 13.0 | 0.00 | 0.17 | 0.02 | 83 | 1009.7 |
| 20260508232506 | 58 | 217 | 7.0 | 13.0 | 0.00 | 0.17 | 0.02 | 83 | 1009.6 |
| 20260508232006 | 58 | 207 | 6.1 | 9.6 | 0.00 | 0.17 | 0.02 | 82 | 1009.6 |
| 20260508231507 | 58 | 213 | 7.0 | 11.3 | 0.00 | 0.17 | 0.02 | 82 | 1009.7 |
| 20260508231006 | 58 | 228 | 6.1 | 11.3 | 0.00 | 0.17 | 0.02 | 82 | 1009.7 |
| 20260508230506 | 59 | 218 | 7.0 | 12.2 | 0.00 | 0.17 | 0.02 | 82 | 1009.7 |
| 20260508230006 | 59 | 210 | 7.8 | 12.2 | 0.00 | 0.17 | 0.02 | 82 | 1009.8 |
| 20260508225504 | 59 | 200 | 7.8 | 13.9 | 0.00 | 0.17 | 0.02 | 83 | 1009.8 |
| 20260508225228 | 58 | 200 | 7.8 | 13.9 | 0.00 | 0.17 | 0.02 | 82 | 1009.8 |
| 20260508224506 | 58 | 223 | 10.4 | 15.6 | 0.00 | 0.17 | 0.02 | 81 | 1009.9 |
| 20260508224006 | 59 | 213 | 9.6 | 15.6 | 0.00 | 0.17 | 0.02 | 81 | 1009.9 |
| 20260508223504 | 59 | 204 | 8.7 | 13.0 | 0.00 | 0.17 | 0.02 | 80 | 1009.9 |
| 20260508222958 | 59 | 223 | 8.7 | 13.9 | 0.00 | 0.17 | 0.02 | 80 | 1009.8 |
| 20260508222718 | 59 | 217 | 7.8 | 13.9 | 0.00 | 0.17 | 0.02 | 79 | 1009.8 |
| 20260508221946 | 58 | 211 | 7.8 | 12.2 | 0.00 | 0.17 | 0.02 | 79 | 1009.9 |
| 20260508221441 | 58 | 199 | 7.8 | 12.2 | 0.00 | 0.17 | 0.02 | 79 | 1009.9 |
| 20260508220935 | 58 | 241 | 7.8 | 13.0 | 0.00 | 0.17 | 0.02 | 79 | 1009.9 |
| 20260508220428 | 58 | 252 | 7.0 | 13.0 | 0.00 | 0.17 | 0.02 | 76 | 1009.9 |
| 20260508215922 | 59 | 221 | 6.1 | 11.3 | 0.00 | 0.17 | 0.02 | 77 | 1010.0 |
| 20260508215416 | 59 | 261 | 7.8 | 13.9 | 0.00 | 0.17 | 0.02 | 76 | 1009.9 |
| 20260508214910 | 59 | 227 | 7.8 | 13.9 | 0.00 | 0.17 | 0.02 | 76 | 1010.0 |
| 20260508214404 | 59 | 243 | 7.0 | 12.2 | 0.00 | 0.17 | 0.02 | 77 | 1009.9 |
| 20260508213858 | 59 | 279 | 7.0 | 12.2 | 0.00 | 0.17 | 0.02 | 77 | 1009.9 |
| 20260508213352 | 59 | 255 | 7.0 | 13.9 | 0.00 | 0.17 | 0.02 | 78 | 1009.9 |
| 20260508212846 | 59 | 202 | 7.8 | 13.9 | 0.00 | 0.17 | 0.02 | 78 | 1009.9 |
| 20260508212340 | 59 | 246 | 8.7 | 15.6 | 0.00 | 0.17 | 0.02 | 77 | 1010.0 |
| 20260508211835 | 59 | 235 | 7.8 | 15.6 | 0.00 | 0.17 | 0.02 | 77 | 1010.0 |
| 20260508211328 | 59 | 232 | 7.8 | 13.9 | 0.00 | 0.17 | 0.02 | 77 | 1009.9 |
| 20260508210822 | 59 | 209 | 7.8 | 13.9 | 0.00 | 0.17 | 0.02 | 77 | 1009.9 |
| 20260508210316 | 58 | 229 | 4.3 | 8.7 | 0.00 | 0.17 | 0.02 | 78 | 1010.0 |
| 20260508205811 | 58 | 225 | 4.3 | 8.7 | 0.00 | 0.17 | 0.02 | 77 | 1010.1 |
| 20260508205747 | 58 | 229 | 6.1 | 10.4 | 0.00 | 0.17 | 0.02 | 77 | 1010.2 |
| 20260508204759 | 58 | 220 | 6.1 | 12.2 | 0.00 | 0.17 | 0.02 | 77 | 1010.2 |
| 20260508204252 | 58 | 210 | 6.1 | 12.2 | 0.00 | 0.17 | 0.02 | 79 | 1010.2 |
| 20260508203746 | 58 | 211 | 5.2 | 8.7 | 0.00 | 0.17 | 0.02 | 81 | 1010.3 |
| 20260508203240 | 57 | 210 | 5.2 | 7.8 | 0.00 | 0.17 | 0.02 | 81 | 1010.3 |
| 20260508202734 | 58 | 202 | 6.1 | 11.3 | 0.00 | 0.17 | 0.02 | 81 | 1010.4 |
| 20260508202452 | 58 | 209 | 7.8 | 14.8 | 0.00 | 0.17 | 0.02 | 80 | 1010.5 |
| 20260508201949 | 58 | 207 | 8.7 | 14.8 | 0.00 | 0.17 | 0.02 | 79 | 1010.6 |
| 20260508201217 | 59 | 227 | 6.1 | 12.2 | 0.00 | 0.17 | 0.02 | 76 | 1010.6 |
| 20260508200711 | 59 | 181 | 5.2 | 7.8 | 0.00 | 0.17 | 0.02 | 77 | 1010.8 |
| 20260508200204 | 59 | 198 | 5.2 | 7.8 | 0.00 | 0.17 | 0.02 | 76 | 1010.8 |
| 20260508195658 | 59 | 190 | 3.5 | 6.1 | 0.00 | 0.17 | 0.02 | 76 | 1010.7 |
| 20260508195153 | 58 | 193 | 2.6 | 5.2 | 0.00 | 0.17 | 0.02 | 76 | 1010.8 |
| 20260508194904 | 58 | 220 | 3.5 | 6.1 | 0.00 | 0.17 | 0.02 | 74 | 1011.0 |
| 20260508194406 | 58 | 227 | 2.6 | 6.1 | 0.00 | 0.17 | 0.02 | 75 | 1011.0 |
| 20260508193634 | 59 | 200 | 1.7 | 5.2 | 0.00 | 0.17 | 0.02 | 74 | 1011.1 |
| 20260508193128 | 59 | 224 | 0.9 | 2.6 | 0.00 | 0.17 | 0.02 | 74 | 1011.2 |
| 20260508192622 | 58 | 236 | 0.9 | 1.7 | 0.00 | 0.17 | 0.02 | 75 | 1011.2 |
| 20260508192117 | 58 | 236 | 0.9 | 3.5 | 0.00 | 0.17 | 0.02 | 76 | 1011.3 |
| 20260508191609 | 58 | 236 | 1.7 | 3.5 | 0.00 | 0.17 | 0.02 | 76 | 1011.4 |
| 20260508191104 | 58 | 247 | 0.9 | 3.5 | 0.00 | 0.17 | 0.02 | 76 | 1011.5 |
| 20260508190558 | 57 | 202 | 0.9 | 2.6 | 0.00 | 0.17 | 0.02 | 77 | 1011.6 |
| 20260508190052 | 57 | 202 | 1.7 | 2.6 | 0.00 | 0.17 | 0.02 | 77 | 1011.7 |
| 20260508185811 | 57 | 202 | 1.7 | 4.3 | 0.00 | 0.17 | 0.02 | 79 | 1011.7 |
| 20260508185258 | 57 | 209 | 2.6 | 4.3 | 0.00 | 0.17 | 0.02 | 78 | 1011.6 |
| 20260508184534 | 57 | 232 | 2.6 | 5.2 | 0.00 | 0.17 | 0.02 | 79 | 1011.8 |
| 20260508184249 | 57 | 208 | 2.6 | 5.2 | 0.00 | 0.17 | 0.02 | 79 | 1012.0 |
| 20260508183522 | 57 | 223 | 4.3 | 7.0 | 0.00 | 0.17 | 0.02 | 80 | 1012.0 |
| 20260508183016 | 57 | 224 | 5.2 | 7.0 | 0.00 | 0.17 | 0.02 | 80 | 1012.0 |
| 20260508182510 | 57 | 179 | 4.3 | 7.8 | 0.00 | 0.17 | 0.02 | 80 | 1012.2 |
| 20260508182004 | 57 | 209 | 4.3 | 8.7 | 0.00 | 0.17 | 0.02 | 79 | 1012.3 |
| 20260508181458 | 57 | 174 | 5.2 | 8.7 | 0.00 | 0.17 | 0.02 | 80 | 1012.3 |
| 20260508180958 | 57 | 217 | 4.3 | 7.8 | 0.00 | 0.17 | 0.02 | 79 | 1012.4 |
| 20260508180458 | 57 | 205 | 4.3 | 7.8 | 0.00 | 0.17 | 0.02 | 80 | 1012.3 |
| 20260508175958 | 57 | 195 | 4.3 | 7.8 | 0.00 | 0.17 | 0.02 | 80 | 1012.3 |
| 20260508175458 | 57 | 221 | 6.1 | 8.7 | 0.00 | 0.17 | 0.02 | 79 | 1012.4 |
| 20260508175222 | 57 | 195 | 6.1 | 9.6 | 0.00 | 0.17 | 0.02 | 80 | 1012.4 |
| 20260508174458 | 57 | 205 | 5.2 | 9.6 | 0.00 | 0.17 | 0.02 | 81 | 1012.4 |
| 20260508174000 | 56 | 204 | 5.2 | 7.8 | 0.00 | 0.17 | 0.02 | 80 | 1012.5 |
| 20260508173459 | 56 | 217 | 4.3 | 7.0 | 0.00 | 0.17 | 0.02 | 80 | 1012.5 |
| 20260508172957 | 56 | 194 | 4.3 | 6.1 | 0.00 | 0.17 | 0.02 | 81 | 1012.7 |
| 20260508172455 | 56 | 202 | 4.3 | 7.0 | 0.00 | 0.17 | 0.02 | 82 | 1012.8 |
| 20260508171952 | 55 | 202 | 4.3 | 7.0 | 0.00 | 0.17 | 0.02 | 82 | 1012.8 |
| 20260508171452 | 55 | 191 | 4.3 | 7.0 | 0.00 | 0.17 | 0.02 | 82 | 1012.8 |
| 20260508170953 | 55 | 209 | 4.3 | 7.8 | 0.00 | 0.17 | 0.02 | 83 | 1012.9 |
| 20260508170451 | 55 | 186 | 4.3 | 7.8 | 0.00 | 0.17 | 0.02 | 84 | 1013.0 |
| 20260508170210 | 54 | 198 | 4.3 | 7.0 | 0.00 | 0.17 | 0.02 | 85 | 1013.1 |
| 20260508165451 | 54 | 184 | 3.5 | 7.0 | 0.00 | 0.17 | 0.02 | 84 | 1013.3 |
| 20260508164953 | 54 | 219 | 2.6 | 5.2 | 0.00 | 0.17 | 0.02 | 86 | 1013.3 |
| 20260508164446 | 53 | 217 | 2.6 | 4.3 | 0.01 | 0.17 | 0.02 | 86 | 1013.4 |
| 20260508163941 | 53 | 213 | 2.6 | 4.3 | 0.01 | 0.17 | 0.02 | 86 | 1013.6 |
| 20260508163433 | 53 | 213 | 3.5 | 4.3 | 0.01 | 0.17 | 0.02 | 86 | 1013.6 |
| 20260508162932 | 53 | 185 | 3.5 | 5.2 | 0.01 | 0.17 | 0.02 | 86 | 1013.6 |
| 20260508162433 | 53 | 205 | 3.5 | 5.2 | 0.01 | 0.17 | 0.02 | 86 | 1013.7 |
| 20260508161929 | 53 | 192 | 3.5 | 6.1 | 0.01 | 0.17 | 0.02 | 86 | 1013.8 |
| 20260508161430 | 53 | 217 | 3.5 | 6.1 | 0.01 | 0.17 | 0.02 | 86 | 1014.0 |
| 20260508160931 | 53 | 213 | 3.5 | 5.2 | 0.01 | 0.17 | 0.02 | 86 | 1013.8 |
| 20260508160428 | 53 | 221 | 3.5 | 6.1 | 0.01 | 0.17 | 0.02 | 85 | 1013.9 |
| 20260508155928 | 53 | 231 | 3.5 | 6.1 | 0.01 | 0.17 | 0.02 | 85 | 1013.9 |
| 20260508155429 | 53 | 207 | 4.3 | 7.8 | 0.01 | 0.17 | 0.02 | 85 | 1013.8 |
| 20260508154928 | 53 | 213 | 3.5 | 7.8 | 0.00 | 0.16 | 0.02 | 85 | 1013.8 |
| 20260508154427 | 53 | 233 | 4.3 | 8.7 | 0.00 | 0.16 | 0.01 | 85 | 1013.7 |
| 20260508154416 | 53 | 225 | 6.1 | 9.6 | 0.00 | 0.16 | 0.01 | 85 | 1013.6 |
| 20260508153424 | 53 | 202 | 6.1 | 9.6 | 0.00 | 0.16 | 0.01 | 85 | 1013.8 |
| 20260508152924 | 53 | 200 | 6.1 | 10.4 | 0.00 | 0.16 | 0.01 | 86 | 1013.5 |
| 20260508152423 | 53 | 219 | 6.1 | 10.4 | 0.00 | 0.16 | 0.01 | 86 | 1013.7 |
| 20260508152157 | 53 | 221 | 5.2 | 8.7 | 0.00 | 0.16 | 0.01 | 87 | 1013.7 |
| 20260508151424 | 53 | 227 | 5.2 | 8.7 | 0.00 | 0.16 | 0.01 | 87 | 1013.7 |
| 20260508150923 | 52 | 217 | 4.3 | 7.8 | 0.00 | 0.16 | 0.01 | 88 | 1013.7 |
| 20260508150423 | 52 | 220 | 3.5 | 7.0 | 0.01 | 0.16 | 0.01 | 88 | 1013.8 |
| 20260508145924 | 52 | 209 | 4.3 | 7.0 | 0.01 | 0.16 | 0.01 | 89 | 1013.9 |
| 20260508145425 | 52 | 220 | 3.5 | 7.0 | 0.01 | 0.16 | 0.01 | 90 | 1013.8 |
| 20260508145414 | 51 | 223 | 4.3 | 7.8 | 0.01 | 0.16 | 0.01 | 90 | 1013.8 |
| 20260508144654 | 51 | 228 | 4.3 | 7.8 | 0.01 | 0.16 | 0.01 | 90 | 1013.9 |
| 20260508144149 | 51 | 234 | 3.5 | 7.0 | 0.01 | 0.16 | 0.01 | 90 | 1013.8 |
| 20260508143423 | 50 | 202 | 3.5 | 6.1 | 0.01 | 0.16 | 0.01 | 90 | 1013.8 |
| 20260508142923 | 50 | 223 | 2.6 | 5.2 | 0.01 | 0.16 | 0.01 | 90 | 1014.0 |
| 20260508142423 | 50 | 225 | 3.5 | 6.1 | 0.01 | 0.16 | 0.01 | 90 | 1014.1 |
| 20260508142148 | 50 | 226 | 3.5 | 7.8 | 0.01 | 0.16 | 0.01 | 89 | 1014.0 |
| 20260508141425 | 50 | 202 | 4.3 | 7.8 | 0.01 | 0.16 | 0.01 | 89 | 1014.3 |
| 20260508140924 | 50 | 219 | 5.2 | 8.7 | 0.01 | 0.16 | 0.01 | 88 | 1014.4 |
| 20260508140649 | 50 | 223 | 5.2 | 8.7 | 0.00 | 0.15 | 0.01 | 88 | 1014.4 |
| 20260508135924 | 50 | 226 | 4.3 | 7.8 | 0.00 | 0.15 | 0.00 | 88 | 1014.5 |
| 20260508135425 | 50 | 234 | 2.6 | 6.1 | 0.00 | 0.15 | 0.00 | 87 | 1014.5 |
| 20260508135407 | 50 | 229 | 2.6 | 5.2 | 0.00 | 0.15 | 0.00 | 87 | 1014.4 |
| 20260508134421 | 51 | 215 | 2.6 | 5.2 | 0.00 | 0.15 | 0.00 | 87 | 1014.4 |
| 20260508133920 | 50 | 213 | 3.5 | 6.1 | 0.00 | 0.15 | 0.00 | 87 | 1014.4 |
| 20260508133421 | 50 | 217 | 3.5 | 6.1 | 0.00 | 0.15 | 0.00 | 86 | 1014.3 |
| 20260508132919 | 50 | 219 | 3.5 | 7.0 | 0.00 | 0.15 | 0.00 | 86 | 1014.1 |
| 20260508132421 | 50 | 225 | 4.3 | 7.0 | 0.00 | 0.15 | 0.00 | 86 | 1014.0 |
| 20260508131919 | 50 | 229 | 3.5 | 7.0 | 0.00 | 0.15 | 0.00 | 86 | 1014.0 |
| 20260508131418 | 50 | 213 | 3.5 | 6.1 | 0.00 | 0.15 | 0.00 | 86 | 1014.2 |
| 20260508130916 | 50 | 209 | 3.5 | 6.1 | 0.00 | 0.15 | 0.00 | 85 | 1014.3 |
| 20260508130856 | 50 | 213 | 3.5 | 6.1 | 0.00 | 0.15 | 0.00 | 85 | 1014.3 |
| 20260508125917 | 50 | 234 | 2.6 | 5.2 | 0.00 | 0.15 | 0.00 | 85 | 1014.2 |
| 20260508125416 | 50 | 232 | 3.5 | 5.2 | 0.00 | 0.15 | 0.00 | 85 | 1014.0 |
| 20260508124917 | 50 | 216 | 3.5 | 5.2 | 0.00 | 0.15 | 0.00 | 85 | 1013.9 |
| 20260508124411 | 50 | 211 | 3.5 | 5.2 | 0.00 | 0.15 | 0.00 | 85 | 1014.0 |
| 20260508123905 | 50 | 227 | 2.6 | 4.3 | 0.00 | 0.15 | 0.00 | 85 | 1014.1 |
| 20260508123404 | 50 | 207 | 2.6 | 4.3 | 0.00 | 0.15 | 0.00 | 85 | 1014.2 |
| 20260508122853 | 50 | 215 | 2.6 | 5.2 | 0.00 | 0.15 | 0.00 | 85 | 1014.1 |
| 20260508122608 | 50 | 233 | 2.6 | 5.2 | 0.00 | 0.15 | 0.00 | 85 | 1014.1 |
| 20260508121842 | 50 | 234 | 2.6 | 5.2 | 0.00 | 0.15 | 0.00 | 85 | 1014.1 |
| 20260508121335 | 50 | 234 | 1.7 | 4.3 | 0.00 | 0.15 | 0.00 | 85 | 1014.0 |
| 20260508120830 | 50 | 241 | 1.7 | 4.3 | 0.00 | 0.15 | 0.00 | 85 | 1014.0 |
| 20260508120323 | 49 | 239 | 1.7 | 4.3 | 0.00 | 0.15 | 0.00 | 85 | 1013.9 |
| 20260508115816 | 49 | 234 | 1.7 | 4.3 | 0.00 | 0.15 | 0.00 | 85 | 1013.8 |
| 20260508115312 | 49 | 249 | 2.6 | 4.3 | 0.00 | 0.15 | 0.00 | 85 | 1013.9 |
| 20260508114805 | 49 | 242 | 1.7 | 4.3 | 0.00 | 0.15 | 0.00 | 86 | 1013.8 |
| 20260508114259 | 49 | 283 | 0.9 | 3.5 | 0.00 | 0.15 | 0.00 | 86 | 1013.8 |
| 20260508113753 | 48 | 254 | 0.9 | 4.3 | 0.00 | 0.15 | 0.00 | 86 | 1013.8 |
| 20260508113247 | 48 | 254 | 1.7 | 4.3 | 0.00 | 0.15 | 0.00 | 86 | 1013.7 |
| 20260508113009 | 48 | 255 | 0.9 | 3.5 | 0.00 | 0.15 | 0.00 | 86 | 1013.7 |
| 20260508112234 | 48 | 242 | 0.9 | 3.5 | 0.00 | 0.15 | 0.00 | 87 | 1013.8 |
| 20260508111729 | 47 | 251 | 0.9 | 3.5 | 0.00 | 0.15 | 0.00 | 87 | 1013.8 |
| 20260508111223 | 47 | 240 | 0.9 | 2.6 | 0.00 | 0.15 | 0.00 | 87 | 1013.7 |
| 20260508110718 | 47 | 222 | 0.9 | 2.6 | 0.00 | 0.15 | 0.00 | 87 | 1013.6 |
| 20260508110212 | 46 | 232 | 1.7 | 4.3 | 0.00 | 0.15 | 0.00 | 86 | 1013.7 |
| 20260508105933 | 46 | 250 | 1.7 | 4.3 | 0.00 | 0.15 | 0.00 | 86 | 1013.7 |
| 20260508105158 | 46 | 239 | 1.7 | 4.3 | 0.00 | 0.15 | 0.00 | 86 | 1013.7 |
| 20260508104654 | 46 | 229 | 1.7 | 4.3 | 0.00 | 0.15 | 0.00 | 86 | 1013.6 |
| 20260508104147 | 46 | 224 | 2.6 | 7.0 | 0.00 | 0.15 | 0.00 | 86 | 1013.4 |
| 20260508103641 | 46 | 223 | 2.6 | 7.0 | 0.00 | 0.15 | 0.00 | 87 | 1013.4 |
| 20260508103400 | 46 | 232 | 2.6 | 4.3 | 0.00 | 0.15 | 0.00 | 87 | 1013.5 |
| 20260508102629 | 46 | 223 | 2.6 | 5.2 | 0.00 | 0.15 | 0.00 | 86 | 1013.5 |
| 20260508102123 | 47 | 238 | 2.6 | 6.1 | 0.00 | 0.15 | 0.00 | 87 | 1013.5 |
| 20260508101617 | 47 | 223 | 2.6 | 6.1 | 0.00 | 0.15 | 0.00 | 87 | 1013.3 |
| 20260508101111 | 46 | 221 | 2.6 | 3.5 | 0.00 | 0.15 | 0.00 | 87 | 1013.3 |
| 20260508100605 | 47 | 216 | 2.6 | 4.3 | 0.00 | 0.15 | 0.00 | 87 | 1013.1 |
| 20260508100100 | 47 | 217 | 2.6 | 4.3 | 0.00 | 0.15 | 0.00 | 86 | 1013.3 |
| 20260508095815 | 47 | 217 | 2.6 | 4.3 | 0.00 | 0.15 | 0.00 | 86 | 1013.4 |
| 20260508095052 | 47 | 217 | 1.7 | 4.3 | 0.00 | 0.15 | 0.00 | 86 | 1013.4 |
| 20260508094537 | 47 | 232 | 1.7 | 6.1 | 0.00 | 0.15 | 0.00 | 86 | 1013.5 |
| 20260508094031 | 47 | 241 | 1.7 | 6.1 | 0.00 | 0.15 | 0.00 | 86 | 1013.5 |
| 20260508093525 | 47 | 252 | 2.6 | 6.1 | 0.00 | 0.15 | 0.00 | 86 | 1013.5 |
| 20260508093019 | 47 | 229 | 2.6 | 6.1 | 0.00 | 0.15 | 0.00 | 86 | 1013.6 |
| 20260508092513 | 47 | 226 | 2.6 | 4.3 | 0.00 | 0.15 | 0.00 | 86 | 1013.6 |
| 20260508092007 | 47 | 237 | 2.6 | 7.0 | 0.00 | 0.15 | 0.00 | 87 | 1013.7 |
| 20260508091501 | 47 | 253 | 3.5 | 7.0 | 0.00 | 0.15 | 0.00 | 87 | 1013.6 |
| 20260508090955 | 47 | 245 | 2.6 | 5.2 | 0.00 | 0.15 | 0.00 | 87 | 1013.6 |
| 20260508090449 | 46 | 301 | 1.7 | 4.3 | 0.00 | 0.15 | 0.00 | 87 | 1013.7 |
| 20260508090203 | 46 | 242 | 1.7 | 5.2 | 0.00 | 0.15 | 0.00 | 87 | 1013.6 |
| 20260508085442 | 46 | 244 | 2.6 | 6.1 | 0.00 | 0.15 | 0.00 | 87 | 1013.6 |
| 20260508084942 | 46 | 218 | 2.6 | 6.1 | 0.00 | 0.15 | 0.00 | 87 | 1013.6 |
| 20260508084442 | 46 | 224 | 2.6 | 5.2 | 0.00 | 0.15 | 0.00 | 87 | 1013.6 |
| 20260508083940 | 46 | 230 | 2.6 | 6.1 | 0.00 | 0.15 | 0.00 | 87 | 1013.6 |
| 20260508083707 | 46 | 219 | 2.6 | 6.1 | 0.00 | 0.15 | 0.00 | 87 | 1013.6 |
| 20260508082939 | 46 | 205 | 2.6 | 7.0 | 0.00 | 0.15 | 0.00 | 87 | 1013.6 |
| 20260508082439 | 46 | 221 | 3.5 | 7.0 | 0.00 | 0.15 | 0.00 | 87 | 1013.6 |
| 20260508081939 | 46 | 249 | 2.6 | 5.2 | 0.00 | 0.15 | 0.00 | 88 | 1013.6 |
| 20260508081438 | 45 | 222 | 2.6 | 5.2 | 0.00 | 0.15 | 0.00 | 88 | 1013.6 |
| 20260508080940 | 45 | 240 | 2.6 | 6.1 | 0.00 | 0.15 | 0.00 | 88 | 1013.7 |
| 20260508080439 | 45 | 234 | 2.6 | 6.1 | 0.00 | 0.15 | 0.00 | 88 | 1013.6 |
| 20260508075940 | 45 | 216 | 3.5 | 6.1 | 0.00 | 0.15 | 0.00 | 88 | 1013.7 |
| 20260508075438 | 45 | 243 | 3.5 | 6.1 | 0.00 | 0.15 | 0.00 | 89 | 1013.6 |
| 20260508075416 | 45 | 225 | 3.5 | 7.0 | 0.00 | 0.15 | 0.00 | 89 | 1013.6 |
| 20260508074433 | 45 | 217 | 3.5 | 7.0 | 0.00 | 0.15 | 0.00 | 89 | 1013.6 |
| 20260508073932 | 45 | 215 | 3.5 | 6.1 | 0.00 | 0.15 | 0.00 | 89 | 1013.6 |
| 20260508073430 | 44 | 241 | 3.5 | 6.1 | 0.00 | 0.15 | 0.00 | 90 | 1013.6 |
| 20260508072933 | 44 | 221 | 3.5 | 5.2 | 0.00 | 0.15 | 0.00 | 90 | 1013.6 |
| 20260508072428 | 44 | 207 | 3.5 | 5.2 | 0.00 | 0.15 | 0.00 | 90 | 1013.5 |
| 20260508071928 | 44 | 213 | 3.5 | 6.1 | 0.00 | 0.15 | 0.00 | 90 | 1013.5 |
| 20260508071429 | 44 | 211 | 3.5 | 6.1 | 0.00 | 0.15 | 0.00 | 90 | 1013.5 |
| 20260508070928 | 44 | 214 | 3.5 | 6.1 | 0.00 | 0.15 | 0.00 | 90 | 1013.5 |
| 20260508070427 | 44 | 211 | 3.5 | 6.1 | 0.00 | 0.15 | 0.00 | 90 | 1013.6 |
| 20260508065927 | 44 | 219 | 3.5 | 5.2 | 0.00 | 0.15 | 0.00 | 90 | 1013.6 |
| 20260508065429 | 44 | 216 | 3.5 | 5.2 | 0.00 | 0.15 | 0.00 | 90 | 1013.6 |
| 20260508064927 | 44 | 209 | 2.6 | 4.3 | 0.00 | 0.15 | 0.00 | 90 | 1013.6 |
| 20260508064429 | 44 | 216 | 2.6 | 4.3 | 0.00 | 0.15 | 0.00 | 91 | 1013.6 |
| 20260508063928 | 44 | 213 | 2.6 | 4.3 | 0.00 | 0.15 | 0.00 | 91 | 1013.7 |
| 20260508063427 | 44 | 207 | 2.6 | 4.3 | 0.00 | 0.15 | 0.00 | 90 | 1013.7 |
| 20260508062928 | 44 | 209 | 3.5 | 4.3 | 0.00 | 0.15 | 0.00 | 91 | 1013.8 |
| 20260508062428 | 44 | 194 | 3.5 | 5.2 | 0.00 | 0.15 | 0.00 | 91 | 1013.8 |
| 20260508061927 | 44 | 201 | 3.5 | 5.2 | 0.00 | 0.15 | 0.00 | 91 | 1013.8 |
| 20260508061650 | 44 | 202 | 2.6 | 5.2 | 0.00 | 0.15 | 0.00 | 91 | 1013.9 |
| 20260508060926 | 44 | 200 | 2.6 | 3.5 | 0.00 | 0.15 | 0.00 | 91 | 1013.8 |
| 20260508060428 | 44 | 202 | 2.6 | 3.5 | 0.00 | 0.15 | 0.00 | 91 | 1013.9 |
| 20260508055922 | 44 | 205 | 2.6 | 3.5 | 0.00 | 0.15 | 0.00 | 91 | 1013.9 |
| 20260508055416 | 44 | 205 | 2.6 | 4.3 | 0.00 | 0.15 | 0.00 | 91 | 1013.9 |
| 20260508054910 | 44 | 206 | 3.5 | 5.2 | 0.00 | 0.15 | 0.00 | 91 | 1014.0 |
| 20260508054410 | 44 | 196 | 2.6 | 5.2 | 0.00 | 0.15 | 0.00 | 91 | 1014.1 |
| 20260508053907 | 44 | 202 | 2.6 | 4.3 | 0.00 | 0.15 | 0.00 | 91 | 1014.1 |
| 20260508053405 | 44 | 202 | 2.6 | 4.3 | 0.00 | 0.15 | 0.00 | 91 | 1014.1 |
| 20260508052903 | 44 | 204 | 2.6 | 4.3 | 0.00 | 0.15 | 0.00 | 91 | 1014.1 |
| 20260508052402 | 44 | 189 | 1.7 | 3.5 | 0.00 | 0.15 | 0.00 | 91 | 1014.1 |
| 20260508052129 | 44 | 181 | 1.7 | 3.5 | 0.00 | 0.15 | 0.00 | 91 | 1014.1 |
| 20260508051627 | 44 | 185 | 1.7 | 3.5 | 0.00 | 0.15 | 0.00 | 91 | 1014.1 |
| 20260508050904 | 44 | 168 | 1.7 | 3.5 | 0.00 | 0.15 | 0.00 | 91 | 1014.2 |
| 20260508050402 | 44 | 185 | 1.7 | 4.3 | 0.00 | 0.15 | 0.00 | 91 | 1014.1 |
| 20260508045904 | 44 | 195 | 1.7 | 4.3 | 0.00 | 0.15 | 0.00 | 91 | 1014.2 |
| 20260508045404 | 44 | 190 | 2.6 | 3.5 | 0.00 | 0.15 | 0.00 | 91 | 1014.1 |
| 20260508044859 | 44 | 182 | 1.7 | 3.5 | 0.00 | 0.15 | 0.00 | 91 | 1014.2 |
| 20260508044358 | 44 | 190 | 0.9 | 2.6 | 0.00 | 0.15 | 0.00 | 90 | 1014.2 |
| 20260508044118 | 44 | 190 | 0.9 | 2.6 | 0.00 | 0.15 | 0.00 | 90 | 1014.2 |
| 20260508043359 | 44 | 190 | 1.7 | 3.5 | 0.00 | 0.15 | 0.00 | 90 | 1014.1 |
| 20260508042858 | 44 | 190 | 0.9 | 3.5 | 0.00 | 0.15 | 0.00 | 90 | 1014.1 |
| 20260508042358 | 44 | 188 | 0.9 | 2.6 | 0.00 | 0.15 | 0.00 | 90 | 1014.1 |
| 20260508041858 | 44 | 189 | 0.9 | 2.6 | 0.00 | 0.15 | 0.00 | 90 | 1014.1 |
| 20260508041358 | 44 | 191 | 0.9 | 1.7 | 0.00 | 0.15 | 0.00 | 90 | 1014.1 |
| 20260508041121 | 44 | 191 | 1.7 | 2.6 | 0.00 | 0.15 | 0.00 | 90 | 1014.1 |
| 20260508040358 | 44 | 191 | 1.7 | 2.6 | 0.00 | 0.15 | 0.00 | 90 | 1014.1 |
| 20260508035859 | 44 | 191 | 1.7 | 3.5 | 0.00 | 0.15 | 0.15 | 90 | 1014.1 |
| 20260508035357 | 44 | 191 | 1.7 | 3.5 | 0.00 | 0.15 | 0.15 | 90 | 1014.2 |
| 20260508034857 | 44 | 184 | 0.9 | 3.5 | 0.00 | 0.15 | 0.15 | 90 | 1014.1 |
| 20260508034617 | 44 | 176 | 0.9 | 2.6 | 0.00 | 0.15 | 0.15 | 90 | 1014.1 |
| 20260508033857 | 44 | 176 | 0.9 | 2.6 | 0.00 | 0.15 | 0.15 | 89 | 1014.1 |
| 20260508033357 | 45 | 176 | 0.9 | 1.7 | 0.00 | 0.15 | 0.15 | 89 | 1014.2 |
| 20260508032857 | 45 | 176 | 0.9 | 2.6 | 0.00 | 0.15 | 0.15 | 89 | 1014.2 |
| 20260508032619 | 45 | 176 | 0.9 | 2.6 | 0.00 | 0.15 | 0.15 | 89 | 1014.3 |
| 20260508032114 | 45 | 176 | 0.9 | 2.6 | 0.00 | 0.15 | 0.15 | 90 | 1014.3 |
| 20260508031615 | 45 | 173 | 0.9 | 2.6 | 0.00 | 0.15 | 0.15 | 90 | 1014.4 |
| 20260508030855 | 45 | 175 | 0.9 | 2.6 | 0.00 | 0.15 | 0.15 | 89 | 1014.4 |
| 20260508030615 | 46 | 175 | 0.9 | 2.6 | 0.02 | 0.15 | 0.15 | 89 | 1014.4 |
| 20260508030116 | 46 | 174 | 1.7 | 2.6 | 0.04 | 0.15 | 0.15 | 89 | 1014.4 |
| 20260508025352 | 46 | 173 | 1.7 | 3.5 | 0.07 | 0.15 | 0.15 | 89 | 1014.5 |
| 20260508025345 | 46 | 173 | 1.7 | 3.5 | 0.09 | 0.15 | 0.15 | 89 | 1014.5 |
| 20260508024610 | 46 | 184 | 1.7 | 3.5 | 0.11 | 0.15 | 0.15 | 89 | 1014.3 |